Total_Precipitation_Accumulation
0.00 0.00 0.01 0.01 0.02 0.02 0.04 0.09 0.22 0.26 0.20 0.28 0.36 0.56 0.65 0.76 0.93 0.93 0.79 0.83 1.10 1.27 1.51 1.80 2.31 3.07 4.03 4.81 5.01 4.48 3.94 3.54 3.02 2.55 1.95 1.54 1.33 1.20 1.00 0.83 0.70 0.62 0.57 0.56
0.00 0.02 0.02 0.01 0.02 0.03 0.06 0.08 0.19 0.26 0.18 0.21 0.35 0.65 0.94 0.91 0.83 0.80 0.80 0.73 0.89 1.26 1.68 2.22 3.13 3.73 3.87 3.87 3.47 3.01 2.70 2.46 2.04 1.60 1.27 1.08 0.98 0.81 0.65 0.57 0.54 0.47 0.42 0.41
0.01 0.03 0.02 0.02 0.03 0.09 0.10 0.10 0.18 0.25 0.15 0.16 0.36 0.79 1.06 1.07 0.83 0.68 0.65 0.59 0.83 1.26 1.81 2.54 3.07 3.10 2.67 2.31 2.09 1.95 1.87 1.53 1.35 1.21 1.04 0.90 0.82 0.66 0.55 0.50 0.43 0.35 0.30 0.29
0.01 0.02 0.02 0.02 0.04 0.08 0.09 0.06 0.06 0.09 0.15 0.33 0.52 1.02 1.16 0.95 0.87 0.69 0.65 0.61 0.73 1.01 1.28 1.67 1.88 1.70 1.61 1.64 1.67 1.74 1.64 1.30 1.13 0.99 0.83 0.66 0.57 0.49 0.43 0.39 0.36 0.32 0.26 0.23
0.02 0.03 0.02 0.02 0.03 0.04 0.04 0.03 0.04 0.11 0.22 0.41 0.60 0.84 0.94 0.73 0.85 0.67 0.51 0.49 0.52 0.66 0.73 0.79 0.86 0.90 0.97 1.04 1.24 1.43 1.49 1.35 1.11 0.96 0.84 0.74 0.59 0.52 0.47 0.44 0.42 0.38 0.31 0.26
0.03 0.04 0.03 0.02 0.02 0.03 0.03 0.05 0.12 0.23 0.39 0.89 0.84 0.81 1.00 0.89 0.88 0.65 0.46 0.37 0.42 0.54 0.60 0.60 0.57 0.61 0.71 0.81 0.93 1.10 1.29 1.36 1.22 1.05 0.93 0.82 0.70 0.62 0.54 0.48 0.44 0.39 0.34 0.30
0.09 0.07 0.05 0.03 0.03 0.05 0.05 0.07 0.24 0.57 0.98 1.13 0.70 0.77 1.03 0.76 0.66 0.49 0.28 0.23 0.34 0.51 0.61 0.61 0.54 0.45 0.46 0.55 0.65 0.68 0.80 0.94 0.96 0.89 0.82 0.79 0.75 0.62 0.49 0.41 0.35 0.35 0.31 0.28
0.14 0.12 0.06 0.04 0.04 0.06 0.05 0.04 0.11 0.21 0.32 0.51 0.65 1.03 1.15 0.79 0.51 0.27 0.15 0.16 0.27 0.37 0.38 0.40 0.35 0.28 0.23 0.27 0.39 0.44 0.53 0.62 0.71 0.70 0.65 0.61 0.59 0.47 0.40 0.44 0.34 0.31 0.34 0.34
0.05 0.05 0.04 0.04 0.05 0.06 0.05 0.03 0.04 0.07 0.11 0.31 0.64 0.93 0.87 0.67 0.46 0.28 0.17 0.14 0.13 0.14 0.15 0.19 0.22 0.21 0.18 0.19 0.25 0.34 0.44 0.53 0.58 0.61 0.59 0.49 0.45 0.42 0.40 0.39 0.34 0.29 0.35 0.35
0.02 0.02 0.04 0.04 0.05 0.06 0.05 0.04 0.04 0.05 0.11 0.22 0.48 0.85 0.99 0.79 0.53 0.29 0.21 0.15 0.13 0.13 0.12 0.12 0.13 0.15 0.13 0.14 0.19 0.29 0.39 0.49 0.51 0.54 0.52 0.44 0.46 0.42 0.40 0.37 0.36 0.35 0.32 0.31
0.02 0.02 0.05 0.05 0.06 0.08 0.07 0.06 0.06 0.05 0.07 0.13 0.31 0.52 0.47 0.39 0.31 0.23 0.20 0.13 0.11 0.10 0.08 0.07 0.07 0.10 0.11 0.12 0.14 0.20 0.28 0.36 0.40 0.42 0.43 0.42 0.40 0.37 0.38 0.39 0.37 0.36 0.34 0.33
0.02 0.02 0.03 0.06 0.09 0.08 0.08 0.09 0.09 0.08 0.07 0.09 0.15 0.32 0.26 0.25 0.24 0.19 0.16 0.11 0.09 0.07 0.06 0.05 0.05 0.07 0.10 0.12 0.13 0.16 0.20 0.22 0.28 0.31 0.32 0.35 0.36 0.34 0.34 0.34 0.33 0.34 0.33 0.33
0.03 0.02 0.03 0.11 0.17 0.15 0.10 0.08 0.09 0.10 0.09 0.08 0.19 0.36 0.28 0.20 0.24 0.20 0.19 0.16 0.14 0.09 0.06 0.06 0.06 0.10 0.13 0.12 0.13 0.17 0.20 0.19 0.22 0.23 0.23 0.27 0.35 0.36 0.34 0.30 0.31 0.32 0.33 0.35
0.03 0.02 0.03 0.09 0.18 0.20 0.16 0.11 0.11 0.10 0.07 0.06 0.12 0.30 0.28 0.24 0.23 0.26 0.27 0.22 0.12 0.08 0.07 0.08 0.09 0.11 0.11 0.11 0.13 0.17 0.22 0.26 0.28 0.29 0.29 0.31 0.36 0.39 0.37 0.30 0.30 0.30 0.32 0.34
0.03 0.02 0.02 0.03 0.06 0.11 0.14 0.15 0.12 0.08 0.05 0.07 0.10 0.18 0.16 0.19 0.21 0.26 0.23 0.19 0.13 0.11 0.10 0.10 0.13 0.19 0.20 0.21 0.23 0.26 0.31 0.35 0.38 0.41 0.46 0.50 0.52 0.50 0.46 0.43 0.43 0.44 0.44 0.46
0.03 0.03 0.03 0.03 0.06 0.10 0.12 0.13 0.10 0.07 0.05 0.05 0.06 0.09 0.11 0.15 0.18 0.21 0.18 0.18 0.19 0.19 0.16 0.17 0.20 0.25 0.24 0.22 0.24 0.27 0.34 0.38 0.40 0.45 0.49 0.54 0.61 0.61 0.57 0.57 0.61 0.63 0.64 0.72
0.06 0.06 0.04 0.04 0.07 0.09 0.15 0.12 0.08 0.08 0.07 0.07 0.08 0.10 0.13 0.16 0.25 0.28 0.26 0.29 0.25 0.21 0.16 0.16 0.21 0.23 0.23 0.20 0.20 0.24 0.29 0.37 0.46 0.57 0.65 0.70 0.72 0.73 0.72 0.74 0.80 0.80 0.79 0.80
0.16 0.14 0.11 0.09 0.09 0.14 0.14 0.11 0.10 0.10 0.10 0.14 0.16 0.15 0.17 0.21 0.24 0.27 0.27 0.26 0.27 0.27 0.28 0.26 0.28 0.31 0.28 0.23 0.24 0.30 0.38 0.45 0.52 0.57 0.64 0.71 0.79 0.84 0.88 0.96 1.01 1.02 1.00 0.98
0.27 0.28 0.21 0.16 0.14 0.16 0.17 0.16 0.16 0.17 0.19 0.19 0.25 0.30 0.28 0.26 0.24 0.28 0.32 0.30 0.35 0.32 0.29 0.34 0.39 0.42 0.35 0.32 0.33 0.39 0.47 0.59 0.65 0.67 0.73 0.79 0.85 0.94 1.00 1.04 1.07 1.12 1.14 1.06
0.31 0.35 0.32 0.24 0.25 0.24 0.22 0.25 0.20 0.20 0.33 0.30 0.33 0.37 0.38 0.39 0.46 0.53 0.53 0.42 0.39 0.40 0.37 0.40 0.40 0.40 0.40 0.43 0.47 0.50 0.56 0.67 0.76 0.80 0.80 0.80 0.90 0.98 0.99 0.97 1.01 1.01 1.01 0.94
0.35 0.41 0.39 0.34 0.33 0.27 0.25 0.25 0.27 0.44 0.60 0.59 0.61 0.56 0.48 0.53 0.55 0.52 0.48 0.48 0.41 0.43 0.48 0.44 0.42 0.43 0.44 0.43 0.45 0.54 0.61 0.70 0.74 0.75 0.74 0.75 0.81 0.89 0.90 0.92 0.90 0.84 0.80 0.79
0.54 0.58 0.56 0.53 0.59 0.55 0.40 0.41 0.54 0.65 0.60 0.69 0.60 0.52 0.49 0.49 0.48 0.43 0.43 0.49 0.50 0.50 0.51 0.45 0.36 0.33 0.35 0.38 0.43 0.51 0.57 0.57 0.60 0.61 0.61 0.60 0.61 0.61 0.62 0.72 0.74 0.74 0.77 0.77
0.66 0.71 0.74 0.67 0.68 0.61 0.53 0.55 0.56 0.49 0.45 0.48 0.44 0.39 0.40 0.41 0.40 0.34 0.34 0.38 0.39 0.41 0.43 0.39 0.36 0.33 0.34 0.37 0.43 0.49 0.49 0.50 0.51 0.54 0.54 0.52 0.51 0.56 0.61 0.64 0.61 0.60 0.62 0.61
0.73 0.58 0.69 0.83 0.79 0.68 0.56 0.43 0.42 0.40 0.39 0.38 0.40 0.43 0.43 0.40 0.36 0.34 0.32 0.32 0.36 0.38 0.36 0.37 0.38 0.37 0.41 0.44 0.47 0.45 0.43 0.45 0.50 0.52 0.51 0.52 0.51 0.51 0.51 0.56 0.54 0.52 0.51 0.50
0.72 0.63 0.76 1.06 1.11 0.93 0.74 0.60 0.52 0.48 0.47 0.43 0.45 0.47 0.50 0.48 0.45 0.44 0.36 0.30 0.29 0.28 0.26 0.27 0.34 0.39 0.43 0.44 0.42 0.42 0.42 0.46 0.47 0.45 0.45 0.43 0.43 0.42 0.40 0.45 0.48 0.43 0.44 0.42
0.64 0.70 0.87 1.10 1.05 1.04 0.92 0.71 0.62 0.59 0.61 0.56 0.56 0.57 0.55 0.52 0.51 0.49 0.44 0.33 0.25 0.22 0.24 0.29 0.33 0.38 0.39 0.38 0.37 0.36 0.38 0.45 0.50 0.49 0.44 0.39 0.38 0.38 0.39 0.42 0.43 0.36 0.28 0.25